sat.trackr.live / text

‹ back to catalog

STARLINK-31642

NORAD 59726 · 2024-088U

PAYLOAD ACTIVE UNKNOWN

§ Identity

Operator
Country
US
Launch date
2024-05-10
Launch site
AFWTR
Launch vehicle
Mass (kg)
RCS (m²)

Purposes: comms

External: N2YO · Heavens-Above · Gunter

§ Orbital elements

Epoch: 2026-05-24T23:35:03.969312Z

Period
94.01 min
Inclination
53.1602°
Eccentricity
0.0001167
Mean motion
15.31687475 rev/d
Perigee alt
470.0 km
Apogee alt
471.6 km
Semi-major
6,848.9 km
B*
3.6718e-5
RAAN
145.4893°
Arg perigee
92.7820°
Mean anomaly
267.3315°
Rev number
11,536

§ Raw data

STARLINK-316421 59726U 24088U   26144.98268483  .00000774  00000+0  36718-4 0  99922 59726  53.1602 145.4893 0001167  92.7820 267.3315 15.31687475115365

JSON: /api/v1/satellites/59726 · /tle

For live sub-satellite position, see the globe view (requires WebGL).

§ Visibility from observer

Set your observer location to see the next 7 days of passes ≥ 10°. The values pass through the URL so the page stays shareable.

No JS? Fill the form by hand. The geolocation button needs JavaScript.